Location: Cajon Junction
(34.3117°N, 117.4748°W)
Time: 16:18:53
(UTC+00:00)

Cosmos 1733 Rocket - Pass Details

Date: 18 April 2024
Orbit: 599 x 625 km, 82.5° (Epoch: 19 May)

Event Time Altitude Azimuth Distance (km) Brightness Sun altitude
Rises 12:40:59 0° 0° (N) 2,870 6.7 -7.4°
Reaches altitude 10° 12:43:18 10° 7° (N) 1,958 6.0 -7.0°
Maximum altitude 12:47:27 45° 81° (E) 823 4.4 -6.1°
Drops below altitude 10° 12:51:33 10° 154° (SSE) 1,934 5.7 -5.3°
Sets 12:53:49 0° 161° (SSE) 2,831 6.5 -4.9°
